[[{"header":{"parameterUnit":"m.s-1","parameterCategory":1,"la1":30.2991,"la2":30.254,"lo1":-89.0895,"lo2":-89.0444,"dy":0.0017,"dx":0.0017,"nx":28,"ny":28,"refTime":"2024-03-23T03:00:00:Z","depth":0,"parameterNumber":2,"parameterNumberName":"U-component_of_WINDS"},"data":[0,0,0,0,0,0,0,0,0,0,0,0,0,0,0,0,0,0,0,0,0,0,0,0,0,0,0,0,0,0,0,0,0,0,0,0,0,0,0,0,0,0,0,0,0,0,0,0,0,0,0,0,0,0,0,0,0,0,-0.7634,-0.7633,0,-0.7609,-0.7608,-0.7608,-0.7603,-0.7603,-0.7603,-0.7604,-0.7577,-0.7577,-0.7576,0,0,0,0,0,0,0,0,0,0,0,0,0,-0.7674,-0.7674,-0.7634,-0.7633,-0.7633,-0.7609,-0.7608,-0.7608,-0.7603,-0.7603,-0.7604,-0.7604,-0.7578,-0.7577,-0.7576,0,0,0,0,0,0,0,0,0,0,0,0,0,-0.7654,-0.7673,-0.7634,-0.7628,-0.7627,-0.7609,-0.7608,-0.7608,-0.7603,-0.7603,-0.7604,-0.7604,-0.7578,-0.7577,-0.7576,-0.7562,0,0,-0.7572,-0.7571,0,0,0,0,0,0,0,0,-0.7655,-0.7652,-0.7629,-0.7628,-0.7627,-0.7609,-0.7613,-0.7592,-0.7603,-0.7612,-0.7604,-0.7604,-0.7588,-0.7586,-0.758,-0.7561,-0.7559,-0.7571,-0.7571,-0.757,-0.757,0,0,0,0,0,0,0,-0.7656,-0.7653,-0.7624,-0.7628,-0.7627,-0.7625,-0.7623,-0.7609,-0.7599,-0.7611,-0.7611,-0.7608,-0.7587,-0.7582,-0.758,-0.7559,-0.7571,-0.757,-0.7569,-0.7569,-0.7524,-0.7524,0,0,0,0,0,0,-0.7659,-0.7655,-0.7625,-0.7623,-0.7642,-0.7624,-0.7621,-0.7615,-0.7599,-0.7597,-0.7608,-0.7608,-0.7584,-0.7581,-0.7579,-0.756,-0.757,-0.7569,-0.7568,-0.7524,-0.7524,-0.7523,0,0,0,0,0,0,-0.766,-0.7656,-0.7626,-0.7639,-0.7635,-0.7623,-0.7616,-0.7614,-0.7608,-0.7596,-0.7594,-0.7604,-0.7584,-0.7581,-0.7566,-0.7559,-0.7568,-0.7567,-0.7525,-0.7524,-0.7524,-0.7524,0,0,0,0,0,0,-0.7661,-0.7657,-0.7652,-0.7639,-0.7634,-0.7613,-0.7615,-0.7613,-0.7606,-0.7606,-0.7592,-0.759,-0.7584,-0.7567,-0.7564,-0.7558,-0.7566,-0.7525,-0.7525,-0.7524,-0.7524,-0.7523,-0.7522,0,0,0,0,0,-0.7663,-0.7654,-0.7652,-0.7648,-0.7628,-0.7613,-0.761,-0.7604,-0.7606,-0.76,-0.7592,-0.759,-0.756,-0.7566,-0.7562,-0.7555,-0.7526,-0.7525,-0.7524,-0.7525,-0.7523,-0.7522,0,0,0,0,0,0,-0.7667,-0.7652,-0.765,-0.7636,-0.7626,-0.7612,-0.7606,-0.7603,-0.7592,-0.7592,-0.7584,-0.7581,-0.7566,-0.7559,-0.7565,-0.754,-0.7543,-0.7541,-0.7545,-0.7544,-0.7543,-0.7544,-0.7565,0,0,0,0,0,-0.7666,-0.7656,-0.7643,-0.7632,-0.7627,-0.7617,-0.7611,-0.7606,-0.7595,-0.7591,-0.7581,-0.757,-0.7558,-0.7551,-0.7539,-0.7523,-0.7519,-0.7516,-0.7515,-0.7514,-0.7513,-0.7502,-0.75,-0.752,-0.752,-0.752,0,0,-0.7665,-0.7655,-0.765,-0.7633,-0.7624,-0.7613,-0.7614,-0.7602,-0.7593,-0.7589,-0.7574,-0.7566,-0.7553,-0.7537,-0.753,-0.7531,-0.7506,-0.7513,-0.7513,-0.7512,-0.7501,-0.7499,-0.7497,-0.752,-0.752,-0.752,0,0,-0.7657,-0.7649,-0.7638,-0.7629,-0.7616,-0.7609,-0.7607,-0.7593,-0.7588,-0.7572,-0.7568,-0.7557,-0.7537,-0.7527,-0.7519,-0.7505,-0.7502,-0.7501,-0.7496,-0.7485,-0.7484,-0.7482,-0.7476,-0.7474,-0.75,-0.75,-0.75,0,-0.7657,-0.764,-0.7633,-0.7621,-0.7613,-0.7608,-0.7596,-0.7588,-0.7572,-0.7566,-0.7567,-0.754,-0.7531,-0.7512,-0.7508,-0.7503,-0.7498,-0.7503,-0.7485,-0.7483,-0.7482,-0.7475,-0.7473,-0.75,-0.75,-0.75,-0.75,0,-0.764,-0.7628,-0.7621,-0.7605,-0.7596,-0.7585,-0.7574,-0.7566,-0.7562,-0.7554,-0.7537,-0.7526,-0.7511,-0.7506,-0.7502,-0.7485,-0.7486,-0.7487,-0.749,-0.748,-0.7473,-0.7471,-0.7499,-0.7499,-0.75,-0.75,0,0,-0.7635,-0.7614,-0.7611,-0.7603,-0.7587,-0.7578,-0.7565,-0.755,-0.7542,-0.753,-0.7518,-0.75,-0.75,-0.7491,-0.7485,-0.7476,-0.7463,-0.7477,-0.7477,-0.7474,-0.7442,-0.7442,-0.7439,-0.7461,-0.7461,-0.746,-0.7443,0,-0.7624,-0.7602,-0.7594,-0.7575,-0.7563,-0.7557,-0.7545,-0.7533,-0.7525,-0.7513,-0.7504,-0.7491,-0.7492,-0.7486,-0.7477,-0.7467,-0.7457,-0.7468,-0.7449,-0.7448,-0.7452,-0.7436,-0.7436,-0.742,-0.744,-0.744,-0.744,0,-0.7609,-0.7597,-0.7577,-0.756,-0.7555,-0.7545,-0.7529,-0.7518,-0.7504,-0.7499,-0.7488,-0.7482,-0.7467,-0.7471,-0.7449,-0.7457,-0.7448,-0.7442,-0.7441,-0.7439,-0.7443,-0.7433,-0.7415,-0.7412,-0.7436,-0.7436,-0.7437,0,-0.7607,-0.7585,-0.7569,-0.7562,-0.7543,-0.7536,-0.7527,-0.7513,-0.7504,-0.749,-0.7484,-0.7469,-0.746,-0.7447,-0.7437,-0.7441,-0.7416,-0.7419,-0.741,-0.741,-0.7405,-0.7405,-0.7385,-0.74,-0.74,-0.74,-0.74,0,-0.7595,-0.7583,-0.7567,-0.7558,-0.7543,-0.7533,-0.7518,-0.7509,-0.7496,-0.7484,-0.7478,-0.7466,-0.7454,-0.744,-0.7432,-0.7414,-0.741,-0.7404,-0.7402,-0.7405,-0.7405,-0.7399,-0.7399,-0.74,-0.74,-0.74,-0.74,0,-0.759,-0.758,-0.7562,-0.7545,-0.754,-0.7529,-0.7514,-0.7504,-0.7494,-0.7479,-0.7474,-0.746,-0.7443,-0.7432,-0.741,-0.7405,-0.7385,-0.7383,-0.739,-0.7388,-0.7379,-0.738,-0.7354,-0.7349,-0.7368,-0.7368,-0.7368,0,-0.7584,-0.7574,-0.7555,-0.7546,-0.7537,-0.7523,-0.7514,-0.7503,-0.7492,-0.7474,-0.7465,-0.7448,-0.7434,-0.7407,-0.7394,-0.7377,-0.7374,-0.7366,-0.7372,-0.7374,-0.7373,-0.7373,-0.7371,-0.7365,-0.7365,-0.7365,-0.7365,0,-0.7573,-0.7567,-0.7554,-0.7537,-0.7526,-0.7512,-0.7499,-0.7492,-0.7478,-0.7467,-0.7449,-0.7438,-0.7415,-0.7397,-0.7379,-0.7369,-0.7364,-0.7363,-0.736,-0.7362,-0.7366,-0.7362,-0.7386,-0.7364,-0.7364,-0.7364,-0.7364,-0.7364,-0.7566,-0.7556,-0.7541,-0.7525,-0.7513,-0.75,-0.7489,-0.7478,-0.7463,-0.7444,-0.7438,-0.7419,-0.7403,-0.7377,-0.7367,-0.7351,-0.7352,-0.7348,-0.7346,-0.7345,-0.7344,-0.7368,-0.7348,-0.7348,-0.7348,-0.7348,-0.7348,0,-0.7554,-0.7543,-0.7529,-0.7509,-0.7496,-0.7493,-0.7477,-0.7466,-0.745,-0.7435,-0.7421,-0.7399,-0.7381,-0.7366,-0.7347,-0.7337,-0.7334,-0.7333,-0.7333,-0.733,-0.7346,-0.735,-0.7335,-0.7335,-0.7335,-0.7335,-0.7335,-0.7335,-0.7546,-0.7529,-0.7521,-0.7497,-0.7486,-0.7467,-0.7458,-0.7446,-0.7433,-0.741,-0.7395,-0.7385,-0.7369,-0.7349,-0.7331,-0.7327,-0.732,-0.7318,-0.7314,-0.7328,-0.733,-0.7331,-0.7335,-0.7317,-0.7317,-0.7299,-0.7299,-0.7299]},{"header":{"parameterUnit":"m.s-1","parameterCategory":1,"la1":30.2991,"la2":30.254,"lo1":-89.0895,"lo2":-89.0444,"dy":0.0017,"dx":0.0017,"nx":28,"ny":28,"refTime":"2024-03-23T03:00:00:Z","depth":0,"parameterNumber":3,"parameterNumberName":"V-component_of_WINDS"},"data":[0,0,0,0,0,0,0,0,0,0,0,0,0,0,0,0,0,0,0,0,0,0,0,0,0,0,0,0,0,0,0,0,0,0,0,0,0,0,0,0,0,0,0,0,0,0,0,0,0,0,0,0,0,0,0,0,0,0,-7.779,-7.779,0,-7.7803,-7.7803,-7.7803,-7.7761,-7.776,-7.7759,-7.7757,-7.7767,-7.7769,-7.777,0,0,0,0,0,0,0,0,0,0,0,0,0,-7.7728,-7.773,-7.779,-7.779,-7.7791,-7.7803,-7.7803,-7.7803,-7.7761,-7.776,-7.7758,-7.7757,-7.7767,-7.7769,-7.777,0,0,0,0,0,0,0,0,0,0,0,0,0,-7.775,-7.773,-7.779,-7.7771,-7.777,-7.7803,-7.7803,-7.7803,-7.7762,-7.776,-7.7758,-7.7756,-7.7766,-7.7769,-7.7771,-7.7822,0,0,-7.7777,-7.7778,0,0,0,0,0,0,0,0,-7.7748,-7.7752,-7.7774,-7.7773,-7.7771,-7.7779,-7.7785,-7.7809,-7.7762,-7.7765,-7.7757,-7.7755,-7.7772,-7.7774,-7.778,-7.7822,-7.7823,-7.7777,-7.7779,-7.778,-7.778,0,0,0,0,0,0,0,-7.7747,-7.7751,-7.7795,-7.7774,-7.7772,-7.7762,-7.7763,-7.7789,-7.7779,-7.7764,-7.7761,-7.7764,-7.7771,-7.7778,-7.778,-7.7823,-7.7777,-7.7779,-7.7781,-7.7781,-7.7908,-7.791,0,0,0,0,0,0,-7.7748,-7.775,-7.7795,-7.7795,-7.7755,-7.7764,-7.7765,-7.7778,-7.7778,-7.7777,-7.7765,-7.7762,-7.7776,-7.7778,-7.7781,-7.7841,-7.778,-7.7782,-7.7783,-7.7906,-7.7909,-7.7911,0,0,0,0,0,0,-7.7747,-7.7753,-7.7794,-7.7772,-7.7777,-7.7767,-7.7782,-7.7779,-7.7786,-7.7779,-7.7777,-7.7774,-7.7774,-7.7777,-7.7812,-7.7841,-7.7783,-7.7785,-7.7904,-7.7907,-7.791,-7.7962,0,0,0,0,0,0,-7.7746,-7.7753,-7.7772,-7.7773,-7.7778,-7.7826,-7.7784,-7.7781,-7.779,-7.7786,-7.7787,-7.7786,-7.7773,-7.7809,-7.7814,-7.7843,-7.7786,-7.7901,-7.7905,-7.7909,-7.7958,-7.7967,-7.7975,0,0,0,0,0,-7.7744,-7.7785,-7.7773,-7.7779,-7.7802,-7.7828,-7.7831,-7.7816,-7.7793,-7.7812,-7.7808,-7.7786,-7.7837,-7.7813,-7.7819,-7.7848,-7.7899,-7.7904,-7.7909,-7.7954,-7.7965,-7.7974,0,0,0,0,0,0,-7.7786,-7.7785,-7.7771,-7.7815,-7.7822,-7.7821,-7.7845,-7.7828,-7.7841,-7.7836,-7.7817,-7.7817,-7.7856,-7.7855,-7.7829,-7.7898,-7.7864,-7.787,-7.7897,-7.7907,-7.7915,-7.7914,-7.7788,0,0,0,0,0,-7.7801,-7.7823,-7.782,-7.7859,-7.7863,-7.7854,-7.7864,-7.7853,-7.7859,-7.7861,-7.7859,-7.7866,-7.7883,-7.7895,-7.7911,-7.7958,-7.7958,-7.7981,-7.7989,-7.7996,-7.8001,-7.8027,-7.8038,-7.7926,-7.7926,-7.7926,0,0,-7.7831,-7.7833,-7.7848,-7.7868,-7.7872,-7.7895,-7.7856,-7.7881,-7.7898,-7.7865,-7.7898,-7.7897,-7.7903,-7.7945,-7.7963,-7.7945,-7.8032,-7.8002,-7.8008,-7.8009,-7.8033,-7.8044,-7.8053,-7.793,-7.7929,-7.7929,0,0,-7.7898,-7.7901,-7.7935,-7.794,-7.7948,-7.7942,-7.795,-7.7952,-7.795,-7.7984,-7.796,-7.7979,-7.801,-7.8015,-7.8022,-7.8094,-7.8074,-7.8099,-7.8142,-7.8167,-7.8176,-7.8184,-7.821,-7.822,-7.8104,-7.8105,-7.8105,0,-7.7934,-7.7968,-7.7953,-7.7981,-7.7991,-7.7964,-7.7997,-7.8003,-7.8015,-7.8022,-7.8003,-7.8042,-7.8044,-7.8087,-7.8105,-7.8111,-7.812,-7.8099,-7.8176,-7.8184,-7.8191,-7.8215,-7.8225,-7.8108,-7.8107,-7.8107,-7.8107,0,-7.8012,-7.8037,-7.8063,-7.8077,-7.8089,-7.812,-7.811,-7.8124,-7.8112,-7.8108,-7.8143,-7.8145,-7.8161,-7.817,-7.8158,-7.8212,-7.8201,-7.818,-7.8145,-7.8205,-7.8228,-7.8237,-7.8112,-7.8111,-7.811,-7.8109,0,0,-7.8104,-7.8113,-7.8122,-7.8129,-7.8137,-7.8155,-7.8185,-7.8202,-7.8215,-7.8225,-7.8249,-7.8277,-7.8257,-7.8265,-7.8253,-7.8276,-7.8334,-7.8251,-7.8251,-7.8267,-7.8394,-7.8411,-7.8422,-7.8321,-7.8322,-7.8324,-7.8394,0,-7.817,-7.8223,-7.8212,-7.8263,-7.8285,-7.8261,-7.8287,-7.8294,-7.8292,-7.831,-7.8306,-7.8327,-7.8299,-7.8304,-7.8325,-7.8322,-7.8359,-7.8317,-7.8343,-7.8344,-7.8342,-7.8433,-7.8451,-7.8516,-7.8403,-7.8404,-7.8405,0,-7.8254,-7.8269,-7.8323,-7.8329,-7.8338,-7.8362,-7.8378,-7.8396,-7.8404,-7.84,-7.8411,-7.8395,-7.8424,-7.839,-7.843,-7.8402,-7.8412,-7.8412,-7.8415,-7.8416,-7.8378,-7.8438,-7.8537,-7.8547,-7.8419,-7.8418,-7.8417,0,-7.8317,-7.835,-7.8388,-7.8394,-7.8402,-7.8419,-7.8423,-7.8429,-7.8441,-7.8455,-7.8462,-7.8479,-7.8488,-7.8501,-7.849,-7.8466,-7.8532,-7.8497,-7.853,-7.8531,-7.8545,-7.8544,-7.8647,-7.8551,-7.8551,-7.8551,-7.8551,0,-7.8392,-7.8426,-7.8416,-7.8439,-7.8477,-7.8464,-7.8501,-7.8502,-7.8508,-7.853,-7.851,-7.8531,-7.8516,-7.8535,-7.8527,-7.8562,-7.8566,-7.8564,-7.8561,-7.8566,-7.8566,-7.8572,-7.8567,-7.8554,-7.8553,-7.8553,-7.8552,0,-7.8468,-7.8463,-7.8502,-7.8507,-7.8509,-7.8536,-7.854,-7.8561,-7.8558,-7.8586,-7.8592,-7.8587,-7.8609,-7.86,-7.8623,-7.8618,-7.8663,-7.8654,-7.8661,-7.8658,-7.8692,-7.8689,-7.8803,-7.8817,-7.8712,-7.8713,-7.8714,0,-7.8516,-7.8542,-7.855,-7.8565,-7.8571,-7.8594,-7.8606,-7.8595,-7.8609,-7.8621,-7.8641,-7.8662,-7.8678,-7.8715,-7.8713,-7.8731,-7.8722,-7.8761,-7.8725,-7.8729,-7.8723,-7.8722,-7.8725,-7.8768,-7.8769,-7.877,-7.8771,0,-7.8602,-7.8599,-7.8619,-7.8639,-7.8655,-7.8669,-7.8682,-7.8694,-7.8684,-7.87,-7.8724,-7.8737,-7.8762,-7.8783,-7.8799,-7.8802,-7.8785,-7.8783,-7.8791,-7.8796,-7.8799,-7.8798,-7.868,-7.878,-7.8779,-7.8778,-7.8778,-7.8777,-7.8665,-7.8688,-7.8699,-7.8722,-7.8731,-7.8744,-7.8764,-7.8765,-7.8785,-7.8805,-7.8797,-7.8825,-7.8833,-7.8854,-7.8859,-7.888,-7.8865,-7.8877,-7.888,-7.8884,-7.8889,-7.8796,-7.8883,-7.8883,-7.8882,-7.8882,-7.8882,0,-7.8751,-7.8757,-7.8779,-7.8799,-7.8817,-7.8801,-7.8815,-7.8831,-7.8856,-7.8866,-7.8883,-7.8911,-7.8932,-7.8932,-7.8951,-7.8968,-7.8961,-7.8974,-7.8972,-7.8973,-7.8901,-7.8891,-7.8979,-7.8979,-7.8979,-7.8979,-7.8979,-7.8979,-7.8798,-7.8836,-7.8834,-7.8877,-7.8882,-7.8911,-7.892,-7.8931,-7.894,-7.8972,-7.899,-7.8991,-7.8997,-7.9017,-7.9036,-7.9035,-7.9043,-7.9059,-7.9056,-7.8988,-7.8978,-7.8969,-7.896,-7.9061,-7.9061,-7.9127,-7.9127,-7.9128]}]]